Location: Camps Bay
(33.9517°S, 18.3844°E)
Time: 02:41:04
(UTC+00:00)

Meteor 2-13 Rocket - Pass Details

Date: 18 January 2020
Orbit: 935 x 958 km, 82.5° (Epoch: 22 February)

Event Time Altitude Azimuth Distance (km) Brightness Sun altitude
Exits shadow 01:28:27 54° 296° (WNW) 1,140 4.5 -24.5°
Maximum altitude 01:29:20 59° 262° (W) 1,084 4.5 -24.4°
Drops below altitude 10° 01:35:22 10° 182° (S) 2,675 7.4 -23.6°
Sets 01:37:55 0° 178° (S) 3,625 8.3 -23.2°
